Philip, SD

11:52 PM MDT on April 20, 2018 (GMT -0600)
Philip

Weather History for KPHP - August, 2013

Change the Weather History Date:

Saturday, August 24, 2013

  Actual Average Record
Temperature  
Mean Temperature 85 °F 72 °F  
Max Temperature 102 °F 87 °F 106 °F (1967)
Min Temperature 67 °F 56 °F 39 °F (2015)
Degree Days  
Heating Degree Days 0 1  
Month to date heating degree days 0 4  
Since 1 June heating degree days 67 75  
Since 1 July heating degree days 3 12  
Cooling Degree Days 20 7  
Month to date cooling degree days 174 233  
Year to date cooling degree days 655 688  
Since 1 June cooling degree days 634 661  
Growing Degree Days 34 (Base 50)    
Moisture  
Dew Point 58 °F    
Average Humidity 53    
Maximum Humidity 87    
Minimum Humidity 19    
Precipitation  
Precipitation 0.00 in 0.05 in 0.23 in (2007)
Month to date precipitation 1.25 1.15  
Year to date precipitation 10.40 13.03  
Sea Level Pressure  
Sea Level Pressure 29.73 in    
Wind  
Wind Speed 8 mph (SSW)    
Max Wind Speed 20 mph    
Max Gust Speed 24 mph    
Visibility 10 miles    
Events      
T = Trace of Precipitation, MM = Missing Value Source: NWS Daily Summary

Daily Weather History Graph

Daily Weather History Graph

Search for Another Location

Airport or City:

Astronomy

Aug. 24, 2013 Rise Set
Actual Time 6:00 AM MDT 7:35 PM MDT
Civil Twilight 5:30 AM MDT 8:06 PM MDT
Nautical Twilight 4:53 AM MDT 8:42 PM MDT
Astronomical Twilight 4:13 AM MDT 9:22 PM MDT
Moon 9:19 PM MDT (8/24) 10:13 AM MDT (8/24)
Length of Visible Light 14h 35m
Length of Day
13h 34m
Waning Gibbous, 84% of the Moon is Illuminated
Aug 24
Waning Gibbous
Aug 28
Last Quarter
Sep 5
New
Sep 12
First Quarter
Sep 19
Full

Hourly Weather History & Observations

Time (MDT) Temp. Heat Index Dew Point Humidity Pressure Visibility Wind Dir Wind Speed Gust Speed Precip Events Conditions
12:55 AM 75.9 °F - 64.9 °F 69% 29.73 in 10.0 mi SE 6.9 mph - N/A   Clear
1:55 AM 73.0 °F - 64.9 °F 76% 29.73 in 10.0 mi NE 4.6 mph - N/A   Clear
2:55 AM 73.0 °F - 66.0 °F 79% 29.72 in 10.0 mi ESE 5.8 mph - N/A   Clear
3:55 AM 68.0 °F - 64.9 °F 90% 29.72 in 10.0 mi East 5.8 mph - N/A   Clear
4:55 AM 69.1 °F - 64.9 °F 87% 29.70 in 10.0 mi SE 4.6 mph - N/A   Clear
5:55 AM 70.0 °F - 64.9 °F 84% 29.72 in 10.0 mi SW 4.6 mph - N/A   Clear
6:55 AM 69.1 °F - 64.0 °F 84% 29.73 in 10.0 mi NW 3.5 mph - N/A   Clear
7:55 AM 75.0 °F - 62.1 °F 64% 29.73 in 10.0 mi West 11.5 mph - N/A   Clear
8:55 AM 81.0 °F 81.9 °F 62.1 °F 52% 29.74 in 10.0 mi WSW 11.5 mph - N/A   Clear
9:55 AM 89.1 °F 88.8 °F 60.1 °F 38% 29.75 in 10.0 mi WSW 11.5 mph - N/A   Clear
10:55 AM 91.9 °F 91.2 °F 59.0 °F 33% 29.75 in 10.0 mi WSW 15.0 mph - N/A   Clear
11:55 AM 96.1 °F 93.8 °F 54.0 °F 24% 29.75 in 10.0 mi SW 15.0 mph - N/A   Clear
12:55 PM 98.1 °F 96.1 °F 54.0 °F 23% 29.73 in 10.0 mi WSW 17.3 mph - N/A   Clear
1:55 PM 100.9 °F - 52.0 °F 19% 29.73 in 10.0 mi WSW 15.0 mph 23.0 mph N/A   Clear
2:55 PM 100.9 °F - 52.0 °F 19% 29.72 in 10.0 mi SW 15.0 mph 21.9 mph N/A   Clear
3:55 PM 100.9 °F - 50.0 °F 18% 29.72 in 10.0 mi SSW 15.0 mph 21.9 mph N/A   Clear
4:55 PM 100.9 °F - 50.0 °F 18% 29.71 in 10.0 mi SSW 15.0 mph 23.0 mph N/A   Clear
5:55 PM 98.1 °F - 51.1 °F 20% 29.72 in 10.0 mi SSW 9.2 mph - N/A   Clear
6:55 PM 93.9 °F 91.4 °F 53.1 °F 25% 29.72 in 10.0 mi Calm Calm - N/A   Clear
7:55 PM 84.9 °F 83.6 °F 55.0 °F 36% 29.74 in 10.0 mi Calm Calm - N/A   Clear
8:55 PM 81.0 °F 80.8 °F 55.9 °F 42% 29.75 in 10.0 mi East 3.5 mph - N/A   Clear
9:55 PM 75.0 °F - 57.9 °F 55% 29.75 in 10.0 mi East 6.9 mph - N/A   Clear
10:55 PM 82.0 °F 82.1 °F 59.0 °F 45% 29.74 in 10.0 mi Calm Calm - N/A   Clear
11:55 PM 75.0 °F - 57.9 °F 55% 29.75 in 10.0 mi Calm Calm - N/A   Clear